Location: Carella
(45.8167°N, 9.2667°E)
Time: 10:07:06
(UTC+00:00)

STARLINK-1224 - Pass Details

Date: 30 March 2020
Orbit: 549 x 551 km, 53.0° (Epoch: 26 May)

Event Time Altitude Azimuth Distance (km) Brightness Sun altitude
Rises 18:15:52 0° 229° (SW) 2,711 7.7 -5.4°
Reaches altitude 10° 18:18:06 10° 227° (SW) 1,821 6.8 -5.8°
Maximum altitude 18:22:13 68° 144° (SE) 594 3.6 -6.5°
Drops below altitude 10° 18:26:21 10° 62° (ENE) 1,832 5.8 -7.2°
Enters shadow 18:28:14 - 60° (ENE) 2,583 6.6 -7.5°
